Location: Warner Observatory
(35.1353°N, 89.5455°W)
Time: 22:18:18
(UTC-05:00)

Amateur Radio Satellites - All Passes

Search period start: 28 September 2016 21:48
Search period end: 29 September 2016 21:48
Location: Warner Observatory, 35.1353°N, 89.5455°W

Satellite Date Start Highest point End Downlink Frequencies (MHz)
Time Altitude Azimuth
STRAND 1 28 Sep 21:54:54 21:56:51 12° 297° (WNW) 21:58:47 437.568
Cosmos 2499 28 Sep 21:56:00 22:01:47 24° 275° (W) 22:07:53 435.465 / 435.565
AO-85 28 Sep 22:05:43 22:09:55 24° 308° (NW) 22:13:56 145.980
UNISAT 6 28 Sep 22:11:29 22:14:06 15° 94° (E) 22:16:46 437.425
JUGNU 28 Sep 22:11:50 22:15:40 18° 182° (S) 22:19:29 437.505
FUNcube-1 28 Sep 22:16:12 22:19:30 23° 264° (W) 22:22:48 145.935
ESTCUBE 1 28 Sep 22:31:42 22:34:02 14° 66° (ENE) 22:36:23 437.505/2401.250
ANTELSAT 28 Sep 22:45:32 22:49:41 37° 99° (E) 22:53:54 437.575/2403.000
DELFI C3 28 Sep 22:46:34 22:49:49 24° 264° (W) 22:53:05 145.870
RS-15 28 Sep 22:59:47 23:08:37 23° 328° (NNW) 23:17:46 29.354- 29.394
PRISM 28 Sep 23:03:25 23:05:42 15° 293° (WNW) 23:08:00 437.425
TIGRISAT 28 Sep 23:05:35 23:09:58 62° 100° (E) 23:14:27 435.000
HUMSAT D 28 Sep 23:09:51 23:13:20 27° 263° (W) 23:16:52 437.325/437.525
SRMSAT 28 Sep 23:10:26 23:13:59 16° 174° (S) 23:17:32 437.500
AISAT 28 Sep 23:18:10 23:21:40 23° 69° (ENE) 23:25:10 437.250
SO-50 28 Sep 23:19:21 23:22:22 17° 48° (NE) 23:25:18 436.795
UKube-1 28 Sep 23:22:01 23:22:58 11° 64° (ENE) 23:23:53 .
POPSAT HIP 1 28 Sep 23:27:37 23:29:06 12° 92° (E) 23:30:36 437.405
AUBIESAT-1 28 Sep 23:39:40 23:43:05 27° 68° (ENE) 23:46:19 437.475
NANOSAT C BR1 28 Sep 23:42:01 23:44:49 17° 95° (E) 23:47:36 145.865
UNISAT 6 28 Sep 23:46:46 23:50:56 40° 287° (WNW) 23:55:10 437.425
DX 1 28 Sep 23:49:30 23:53:19 30° 71° (ENE) 23:57:08 434.975-435.025
BEESAT 3 28 Sep 23:50:26 23:52:55 16° 110° (ESE) 23:55:26 437.485
50 SAT 28 Sep 23:56:20 23:59:52 54° 75° (ENE) 00:03:27 437.505
VELOX 1 29 Sep 00:00:35 00:05:00 68° 75° (ENE) 00:09:26 145.980
JUGNU 29 Sep 00:01:18 00:03:55 13° 192° (SSW) 00:06:33 437.505
CUBEBUG 1 29 Sep 00:01:59 00:06:24 88° 250° (WSW) 00:10:51 437.445
QB50P2 29 Sep 00:05:31 00:09:28 38° 99° (E) 00:13:25 145.880/145.840
ESTCUBE 1 29 Sep 00:06:01 00:10:23 48° 261° (W) 00:14:47 437.505/2401.250
POLYITAN 1 29 Sep 00:07:43 00:11:40 38° 99° (E) 00:15:37 437.675
M-CUBED/EXP-1 PRIME 29 Sep 00:17:09 00:21:22 78° 253° (WSW) 00:25:17 437.505
TISAT 1 29 Sep 00:22:29 00:23:07 10° 65° (ENE) 00:23:45 437.305
ANTELSAT 29 Sep 00:23:12 00:26:05 17° 292° (WNW) 00:29:00 437.575/2403.000
SPROUT 29 Sep 00:37:48 00:42:03 84° 256° (WSW) 00:46:20 437.525
Cosmos 2491 29 Sep 00:39:53 00:44:52 16° 65° (ENE) 00:49:48 435.465 / 435.565
JAS-2 29 Sep 00:40:49 00:48:39 67° 101° (E) 00:55:56 435.910
BUGSAT 1 29 Sep 00:42:07 00:45:42 31° 98° (E) 00:49:18 437.445
DUCHIFAT 1 29 Sep 00:43:54 00:48:06 87° 284° (WNW) 00:52:18 145.980
TIGRISAT 29 Sep 00:45:02 00:46:08 11° 295° (WNW) 00:47:14 435.000
BEESAT 2 29 Sep 00:46:56 00:50:33 36° 114° (ESE) 00:54:12 435.950
QB50P1 29 Sep 00:47:17 00:51:28 67° 284° (WNW) 00:55:40 145.935-145.965
UKube-1 29 Sep 00:54:10 00:58:26 60° 259° (W) 01:02:44 .
AISAT 29 Sep 00:54:11 00:57:58 27° 263° (W) 01:01:45 437.250
SRMSAT 29 Sep 00:58:41 01:02:25 17° 184° (S) 01:06:09 437.500
SO-50 29 Sep 00:58:44 01:03:05 48° 245° (WSW) 01:07:21 436.795
POPSAT HIP 1 29 Sep 01:01:03 01:05:05 46° 286° (WNW) 01:09:08 437.405
AUBIESAT-1 29 Sep 01:14:29 01:17:28 19° 258° (WSW) 01:20:18 437.475
NANOSAT C BR1 29 Sep 01:16:50 01:20:34 31° 288° (WNW) 01:24:17 145.865
RS-15 29 Sep 01:22:18 01:28:06 14° 6° (N) 01:33:56 29.354- 29.394
SWISSCUBE 29 Sep 01:24:09 01:26:13 13° 64° (ENE) 01:28:17 437.505
DX 1 29 Sep 01:26:18 01:29:30 20° 265° (W) 01:32:42 434.975-435.025
BEESAT 3 29 Sep 01:26:47 01:30:18 32° 305° (NW) 01:33:51 437.485
BEESAT 29 Sep 01:36:13 01:38:59 16° 65° (ENE) 01:41:45 436.000
YUBILEINY 29 Sep 01:36:44 01:41:33 16° 79° (E) 01:46:21 435.215
QB50P2 29 Sep 01:42:30 01:44:56 15° 293° (WNW) 01:47:20 145.880/145.840
Oscar 19 29 Sep 01:43:49 01:48:18 30° 97° (E) 01:52:45 437.125/150
POLYITAN 1 29 Sep 01:44:42 01:47:06 15° 293° (WNW) 01:49:31 437.675
TISAT 1 29 Sep 01:54:07 01:58:13 57° 259° (W) 02:02:21 437.305
ISS 29 Sep 02:09:42 02:12:06 18° 31° (NNE) 02:14:30 145.825
BUGSAT 1 29 Sep 02:18:16 02:20:49 16° 292° (WNW) 02:23:22 437.445
BEESAT 2 29 Sep 02:25:53 02:28:29 17° 310° (NW) 02:31:06 435.950
JAS-2 29 Sep 02:26:58 02:32:52 24° 298° (WNW) 02:38:33 435.910
Cosmos 2491 29 Sep 02:34:00 02:42:54 89° 89° (E) 02:51:42 435.465 / 435.565
ITAMSAT 1 29 Sep 02:41:42 02:43:37 12° 92° (E) 02:45:32 435.822/435.867
ITUPSAT 1 29 Sep 02:46:15 02:51:00 86° 78° (ENE) 02:55:48 437.325
SRMSAT 29 Sep 02:48:55 02:50:49 11° 194° (SSW) 02:52:43 437.500
Gurwin Techsat 1B 29 Sep 02:50:31 02:55:49 65° 102° (ESE) 03:01:04 435.225
MOZHAYETS 4 29 Sep 02:52:09 02:54:43 15° 66° (ENE) 02:57:18
SWISSCUBE 29 Sep 02:58:46 03:03:27 60° 259° (W) 03:08:10 437.505
KKS-1 29 Sep 03:08:54 03:11:16 14° 66° (ENE) 03:13:37 437.445
BEESAT 29 Sep 03:11:45 03:16:19 48° 260° (W) 03:20:56 436.000
AIST 2 29 Sep 03:19:11 03:23:10 57° 116° (ESE) 03:27:14 435.215
Oscar 19 29 Sep 03:23:11 03:27:29 28° 292° (WNW) 03:31:46 437.125/150
YUBILEINY 29 Sep 03:28:19 03:37:08 85° 276° (W) 03:45:56 435.215
RS-15 29 Sep 03:36:03 03:46:39 31° 40° (NE) 03:57:02 29.354- 29.394
Cosmos 2504 29 Sep 03:36:19 03:43:06 39° 89° (E) 03:49:38 435.465 / 435.565
STARS 29 Sep 03:39:10 03:41:30 14° 66° (ENE) 03:43:48 437.465
ISS 29 Sep 03:45:35 03:48:44 43° 227° (SW) 03:51:52 145.825
AO-7 29 Sep 03:59:44 04:07:24 40° 100° (E) 04:15:02 29.400- 29.500
PCSat 29 Sep 04:11:22 04:16:44 70° 114° (ESE) 04:22:08 145.827
CUBESAT XI-V 29 Sep 04:15:08 04:17:48 15° 66° (ENE) 04:20:30 437.345
ITAMSAT 1 29 Sep 04:18:18 04:23:29 68° 285° (WNW) 04:28:40 435.822/435.867
MOZHAYETS 4 29 Sep 04:27:05 04:31:27 46° 261° (W) 04:35:52
Gurwin Techsat 1B 29 Sep 04:32:26 04:35:09 14° 297° (WNW) 04:37:53 435.225
AIST 1 29 Sep 04:33:10 04:36:19 20° 88° (E) 04:39:28
Cosmos 2491 29 Sep 04:33:57 04:38:24 15° 282° (WNW) 04:42:51 435.465 / 435.565
KKS-1 29 Sep 04:43:07 04:47:24 46° 260° (W) 04:51:41 437.445
AIST 2 29 Sep 05:00:08 05:02:00 13° 312° (NW) 05:03:54 435.215
AO-85 29 Sep 05:01:09 05:02:59 13° 46° (NE) 05:04:48 145.980
STARS 29 Sep 05:13:14 05:17:26 44° 260° (W) 05:21:38 437.465
Cosmos 2504 29 Sep 05:30:01 05:36:26 31° 285° (WNW) 05:42:42 435.465 / 435.565
YUBILEINY 29 Sep 05:30:43 05:35:10 15° 295° (WNW) 05:39:38 435.215
RS-15 29 Sep 05:48:13 06:00:38 83° 244° (WSW) 06:12:38 29.354- 29.394
CUSAT 1 29 Sep 05:48:22 05:55:28 43° 74° (ENE) 06:01:18 437.405
DANDE 29 Sep 05:49:22 05:55:35 22° 67° (ENE) 06:01:24 436.750
CUBESAT XI-V 29 Sep 05:50:13 05:54:43 48° 260° (W) 05:59:17 437.345
AO-7 29 Sep 05:52:30 06:00:03 41° 296° (WNW) 06:07:37 29.400- 29.500
HORYU 2 29 Sep 05:57:11 06:01:35 59° 101° (E) 06:06:00 437.375
PCSat 29 Sep 05:57:24 06:00:39 16° 311° (NW) 06:03:56 145.827
LilacSat-2 29 Sep 06:07:21 06:08:33 11° 93° (E) 06:09:45 437.200
NOAA 15 29 Sep 06:07:41 06:11:24 19° 94° (E) 06:15:05 137.62
AIST 1 29 Sep 06:09:55 06:13:41 28° 282° (WNW) 06:17:28
GOMX 1 29 Sep 06:18:50 06:21:59 20° 94° (E) 06:25:04 467.674
CUTE-I 29 Sep 06:27:53 06:32:15 25° 96° (E) 06:36:37 437.470
Cubesat XI-IV 29 Sep 06:28:11 06:32:33 25° 96° (E) 06:36:54 437.490
DOVE 4 29 Sep 06:35:06 06:36:03 11° 92° (E) 06:37:00 437.250
BRITE-PL 29 Sep 06:35:35 06:40:19 90° 153° (SSE) 06:44:40 437.365/2234.400
O/OREOS (USA 219) 29 Sep 06:36:01 06:40:03 32° 103° (ESE) 06:44:09 437.305
AO-85 29 Sep 06:39:51 06:43:47 52° 245° (WSW) 06:47:32 145.980
NOAA 18 29 Sep 07:19:54 07:25:20 63° 102° (ESE) 07:30:46 137.9125
STRAND 1 29 Sep 07:25:46 07:30:50 74° 75° (ENE) 07:35:56 437.568
HO-68 29 Sep 07:26:30 07:30:12 15° 92° (E) 07:33:52 435.675
DANDE 29 Sep 07:30:47 07:39:11 74° 265° (W) 07:46:37 436.750
CUSAT 1 29 Sep 07:30:54 07:37:04 30° 275° (W) 07:42:18 437.405
CINEMA 3 29 Sep 07:35:36 07:37:49 14° 94° (E) 07:40:03 145.822/145.860
HORYU 2 29 Sep 07:36:12 07:37:35 11° 296° (WNW) 07:39:00 437.375
LilacSat-2 29 Sep 07:39:24 07:42:59 39° 286° (WNW) 07:46:36 437.200
NOAA 15 29 Sep 07:46:19 07:51:20 44° 288° (WNW) 07:56:18 137.62
GONETS M04 29 Sep 07:52:22 07:59:51 32° 85° (E) 08:07:22
GOMX 1 29 Sep 07:56:28 08:00:05 26° 290° (WNW) 08:03:35 467.674
RS-15 29 Sep 08:04:11 08:11:09 17° 262° (W) 08:18:02 29.354- 29.394
CUTE-I 29 Sep 08:07:28 08:12:17 35° 290° (WNW) 08:17:06 437.470
Cubesat XI-IV 29 Sep 08:07:47 08:12:37 35° 290° (WNW) 08:17:26 437.490
DOVE 4 29 Sep 08:10:02 08:14:01 46° 286° (WNW) 08:17:59 437.250
PRISM 29 Sep 08:13:52 08:16:46 19° 68° (ENE) 08:19:40 437.425
O/OREOS (USA 219) 29 Sep 08:16:05 08:19:30 20° 299° (WNW) 08:22:56 437.305
COMPASS 1 29 Sep 08:30:36 08:33:44 20° 95° (E) 08:36:50 437.405
CUBEBUG 2 29 Sep 08:32:53 08:35:43 17° 94° (E) 08:38:37 437.445
Cosmos 2499 29 Sep 08:35:13 08:42:04 49° 91° (E) 08:48:47 435.465 / 435.565
UWE-3 29 Sep 08:47:58 08:50:44 16° 94° (E) 08:53:33 435.000/436.395/437.385
SEEDS 29 Sep 09:01:02 09:05:18 74° 101° (ESE) 09:09:32 437.485
NOAA 18 29 Sep 09:02:19 09:05:25 16° 297° (WNW) 09:08:31 137.9125
CUTE 1.7 + AOD 2 29 Sep 09:02:21 09:06:38 71° 284° (WNW) 09:10:54 437.475
CANX-2 29 Sep 09:03:58 09:08:11 58° 285° (WNW) 09:12:24 2200.000
Oscar 11 29 Sep 09:09:13 09:12:01 17° 94° (E) 09:14:49 145.826/435.025
BEESAT 2 29 Sep 09:10:23 09:10:42 10° 46° (NE) 09:11:00 435.950
CINEMA 3 29 Sep 09:11:10 09:15:04 38° 286° (WNW) 09:19:04 145.822/145.860
HO-68 29 Sep 09:11:23 09:18:34 82° 287° (WNW) 09:25:42 435.675
ZACube-1 29 Sep 09:13:34 09:16:49 20° 95° (E) 09:20:06 437.345
DANDE 29 Sep 09:17:26 09:20:22 12° 282° (WNW) 09:23:13 436.750
AAUSAT CUBESAT 2 29 Sep 09:19:20 09:23:29 62° 100° (E) 09:27:37 437.432
PHONESAT 2.4 29 Sep 09:31:40 09:34:18 31° 149° (SSE) 09:36:56 2401.200-2431.200
ANTELSAT 29 Sep 09:42:00 09:45:16 22° 70° (ENE) 09:48:32 437.575/2403.000
BEESAT 3 29 Sep 09:46:18 09:50:10 47° 58° (ENE) 09:53:59 437.485
GONETS M04 29 Sep 09:47:49 09:56:15 49° 282° (WNW) 10:04:46
PRISM 29 Sep 09:48:09 09:51:48 30° 262° (W) 09:55:31 437.425
TIGRISAT 29 Sep 10:01:25 10:05:16 34° 72° (ENE) 10:09:07 435.000
COMPASS 1 29 Sep 10:05:39 10:09:14 27° 289° (WNW) 10:12:47 437.405
FUNcube-1 29 Sep 10:05:50 10:10:13 79° 102° (ESE) 10:14:40 145.935
CUBEBUG 2 29 Sep 10:08:28 10:12:24 35° 287° (WNW) 10:16:25 437.445
UWE-3 29 Sep 10:23:15 10:27:15 36° 287° (WNW) 10:31:20 435.000/436.395/437.385
DELFI C3 29 Sep 10:26:18 10:30:14 51° 100° (E) 10:34:07 145.870
Cosmos 2499 29 Sep 10:29:51 10:35:24 24° 287° (WNW) 10:40:54 435.465 / 435.565
UNISAT 6 29 Sep 10:42:07 10:46:22 69° 258° (WSW) 10:50:37 437.425
Oscar 11 29 Sep 10:44:15 10:48:13 35° 287° (WNW) 10:52:11 145.826/435.025
BEESAT 2 29 Sep 10:44:58 10:48:59 74° 243° (WSW) 10:52:57 435.950
ZACube-1 29 Sep 10:49:16 10:53:04 30° 288° (WNW) 10:56:57 437.345
JAS-2 29 Sep 10:50:31 10:55:17 21° 61° (ENE) 11:00:25 435.910
HUMSAT D 29 Sep 10:55:26 10:59:38 55° 101° (E) 11:03:51 437.325/437.525
QB50P2 29 Sep 10:55:43 10:58:44 20° 69° (ENE) 11:01:47 145.880/145.840
POLYITAN 1 29 Sep 10:57:55 11:00:56 20° 69° (ENE) 11:03:58 437.675
HO-68 29 Sep 11:01:56 11:05:11 14° 304° (WNW) 11:08:25 435.675
PHONESAT 2.4 29 Sep 11:07:30 11:10:20 45° 344° (NNW) 11:13:10 2401.200-2431.200
ANTELSAT 29 Sep 11:18:16 11:21:50 25° 264° (W) 11:25:23 437.575/2403.000
BEESAT 3 29 Sep 11:26:06 11:27:21 11° 252° (WSW) 11:28:36 437.485
BUGSAT 1 29 Sep 11:29:54 11:32:15 15° 68° (ENE) 11:34:35 437.445
DUCHIFAT 1 29 Sep 11:32:26 11:36:23 42° 74° (ENE) 11:40:19 145.980
QB50P1 29 Sep 11:36:13 11:40:19 56° 75° (ENE) 11:44:26 145.935-145.965
TIGRISAT 29 Sep 11:39:25 11:42:02 16° 266° (W) 11:44:40 435.000
AIST 2 29 Sep 11:44:22 11:47:02 16° 50° (NE) 11:49:41 435.215
POPSAT HIP 1 29 Sep 11:49:49 11:54:01 82° 75° (ENE) 11:58:12 437.405
CUBEBUG 1 29 Sep 11:54:34 11:57:52 21° 95° (E) 12:01:08 437.445
VELOX 1 29 Sep 11:55:09 11:57:52 16° 94° (E) 12:00:35 145.980
ESTCUBE 1 29 Sep 12:01:36 12:05:56 43° 99° (E) 12:10:14 437.505/2401.250
DELFI C3 29 Sep 12:03:58 12:04:33 10° 294° (WNW) 12:05:10 145.870
NANOSAT C BR1 29 Sep 12:05:00 12:09:10 67° 259° (W) 12:13:20 145.865
SPROUT 29 Sep 12:27:37 12:30:47 20° 95° (E) 12:33:58 437.525
QB50P2 29 Sep 12:30:41 12:34:20 28° 263° (W) 12:37:59 145.880/145.840
POLYITAN 1 29 Sep 12:32:54 12:36:32 28° 263° (W) 12:40:09 437.675
JAS-2 29 Sep 12:33:12 12:39:29 64° 260° (W) 12:46:40 435.910
HUMSAT D 29 Sep 12:33:30 12:34:44 11° 294° (WNW) 12:35:58 437.325/437.525
PHONESAT 2.4 29 Sep 12:44:14 12:46:47 26° 1° (N) 12:49:22 2401.200-2431.200
UKube-1 29 Sep 12:44:46 12:48:27 27° 97° (E) 12:52:07 .
AISAT 29 Sep 12:46:39 12:51:02 71° 102° (ESE) 12:55:23 437.250
AUBIESAT-1 29 Sep 12:55:05 12:57:55 26° 103° (ESE) 13:00:48 437.475
Oscar 19 29 Sep 12:57:28 13:02:03 32° 70° (ENE) 13:06:37 437.125/150
50 SAT 29 Sep 13:00:16 13:03:57 74° 283° (WNW) 13:07:33 437.505
PCSat 29 Sep 13:02:52 13:07:33 29° 55° (NE) 13:12:12 145.827
BUGSAT 1 29 Sep 13:03:31 13:07:18 35° 262° (W) 13:11:04 437.445
DUCHIFAT 1 29 Sep 13:10:27 13:12:14 12° 267° (W) 13:14:01 145.980
DX 1 29 Sep 13:16:11 13:20:32 89° 100° (E) 13:24:51 434.975-435.025
AIST 2 29 Sep 13:21:43 13:25:43 44° 245° (WSW) 13:29:41 435.215
VELOX 1 29 Sep 13:30:23 13:34:26 37° 288° (WNW) 13:38:28 145.980
CUBEBUG 1 29 Sep 13:30:27 13:34:06 27° 289° (WNW) 13:37:44 437.445
SO-50 29 Sep 13:33:02 13:33:59 11° 106° (ESE) 13:34:57 436.795
M-CUBED/EXP-1 PRIME 29 Sep 13:33:42 13:36:55 56° 289° (WNW) 13:40:09 437.505
Cosmos 2491 29 Sep 13:37:36 13:43:30 20° 81° (E) 13:49:24 435.465 / 435.565
ESTCUBE 1 29 Sep 13:39:42 13:42:21 16° 293° (WNW) 13:44:59 437.505/2401.250
TISAT 1 29 Sep 13:41:27 13:44:58 26° 97° (E) 13:48:28 437.305
YUBILEINY 29 Sep 13:42:55 13:51:01 41° 76° (ENE) 13:59:03 435.215
ITAMSAT 1 29 Sep 13:56:30 13:59:14 15° 64° (ENE) 14:01:59 435.822/435.867
SPROUT 29 Sep 14:03:05 14:06:41 27° 289° (WNW) 14:10:17 437.525
Gurwin Techsat 1B 29 Sep 14:08:18 14:13:35 75° 75° (ENE) 14:18:54 435.225
PHONESAT 2.4 29 Sep 14:20:22 14:23:14 50° 17° (NNE) 14:26:07 2401.200-2431.200
UKube-1 29 Sep 14:21:02 14:24:18 21° 291° (WNW) 14:27:34 .
AUBIESAT-1 29 Sep 14:30:38 14:32:10 13° 296° (WNW) 14:33:43 437.475
Oscar 19 29 Sep 14:37:01 14:41:19 26° 264° (W) 14:45:37 437.125/150
PCSat 29 Sep 14:46:04 14:50:55 34° 251° (WSW) 14:55:44 145.827
ITUPSAT 1 29 Sep 14:50:22 14:54:30 28° 97° (E) 14:58:38 437.325
AO-7 29 Sep 14:55:14 15:02:53 42° 64° (ENE) 15:10:30 29.400- 29.500
SWISSCUBE 29 Sep 15:02:07 15:06:42 44° 100° (E) 15:11:16 437.505
SO-50 29 Sep 15:09:01 15:13:51 73° 301° (WNW) 15:18:40 436.795
BEESAT 29 Sep 15:14:48 15:19:30 54° 101° (E) 15:24:11 436.000
TISAT 1 29 Sep 15:17:18 15:20:26 21° 291° (WNW) 15:23:33 437.305
Cosmos 2504 29 Sep 15:23:36 15:31:08 71° 83° (E) 15:39:13 435.465 / 435.565
Cosmos 2491 29 Sep 15:30:35 15:39:19 72° 278° (W) 15:48:11 435.465 / 435.565
ITAMSAT 1 29 Sep 15:33:03 15:38:08 61° 259° (WSW) 15:43:17 435.822/435.867
YUBILEINY 29 Sep 15:39:53 15:47:37 38° 273° (W) 15:55:21 435.215
Gurwin Techsat 1B 29 Sep 15:52:48 15:54:01 11° 269° (W) 15:55:13 435.225
PHONESAT 2.4 29 Sep 15:56:39 15:59:13 27° 212° (SSW) 16:01:47 2401.200-2431.200
AIST 1 29 Sep 16:19:34 16:23:43 48° 81° (E) 16:27:49
MOZHAYETS 4 29 Sep 16:25:00 16:29:32 52° 100° (E) 16:34:03
ITUPSAT 1 29 Sep 16:28:14 16:32:11 26° 291° (WNW) 16:36:08 437.325
KKS-1 29 Sep 16:37:06 16:41:17 41° 99° (E) 16:45:26 437.445
SWISSCUBE 29 Sep 16:41:01 16:44:06 17° 294° (WNW) 16:47:10 437.505
AO-7 29 Sep 16:47:58 16:55:34 39° 260° (W) 17:03:12 29.400- 29.500
O/OREOS (USA 219) 29 Sep 16:48:53 16:53:10 37° 65° (ENE) 16:57:24 437.305
HORYU 2 29 Sep 16:52:07 16:56:07 36° 72° (ENE) 17:00:09 437.375
BEESAT 29 Sep 16:54:18 16:56:47 14° 295° (WNW) 16:59:15 436.000
STARS 29 Sep 17:05:37 17:09:43 39° 99° (E) 17:13:49 437.465
NOAA 18 29 Sep 17:08:15 17:08:42 10° 60° (ENE) 17:09:07 137.9125
Cosmos 2504 29 Sep 17:19:00 17:23:45 18° 277° (W) 17:28:43 435.465 / 435.565
GOMX 1 29 Sep 17:23:05 17:27:00 21° 69° (ENE) 17:30:47 467.674
NOAA 15 29 Sep 17:24:34 17:28:41 23° 67° (ENE) 17:32:49 137.62
Cosmos 2491 29 Sep 17:35:04 17:37:47 12° 298° (WNW) 17:40:31 435.465 / 435.565
DOVE 4 29 Sep 17:37:56 17:39:02 11° 66° (ENE) 17:40:07 437.250
BRITE-PL 29 Sep 17:41:20 17:47:01 74° 76° (ENE) 17:52:37 437.365/2234.400
CUTE-I 29 Sep 17:46:36 17:51:10 30° 69° (ENE) 17:55:46 437.470
Cubesat XI-IV 29 Sep 17:47:04 17:51:39 30° 69° (ENE) 17:56:15 437.490
CUBESAT XI-V 29 Sep 17:49:50 17:54:25 53° 100° (E) 17:58:57 437.345
RS-15 29 Sep 17:59:28 18:06:45 20° 99° (E) 18:14:14 29.354- 29.394
AIST 1 29 Sep 18:00:04 18:00:46 10° 275° (W) 18:01:28
MOZHAYETS 4 29 Sep 18:03:51 18:06:12 14° 294° (WNW) 18:08:33
GONETS M04 29 Sep 18:09:06 18:12:06 12° 62° (ENE) 18:15:04
KKS-1 29 Sep 18:14:51 18:17:29 16° 293° (WNW) 18:20:06 437.445
LilacSat-2 29 Sep 18:17:45 18:21:25 57° 76° (ENE) 18:25:08 437.200
O/OREOS (USA 219) 29 Sep 18:29:15 18:32:12 17° 260° (W) 18:35:09 437.305
HORYU 2 29 Sep 18:29:56 18:32:46 17° 266° (W) 18:35:36 437.375
Cosmos 2499 29 Sep 18:31:04 18:34:40 14° 68° (ENE) 18:38:20 435.465 / 435.565
NOAA 18 29 Sep 18:43:01 18:48:30 87° 77° (ENE) 18:53:59 137.9125
STARS 29 Sep 18:43:06 18:45:44 16° 293° (WNW) 18:48:20 437.465
CUSAT 1 29 Sep 18:44:13 18:50:04 48° 90° (E) 18:57:13 437.405
ISS 29 Sep 18:47:18 18:50:00 24° 130° (SE) 18:52:42 145.825
DANDE 29 Sep 18:54:22 18:57:52 18° 80° (E) 19:01:57 436.750
GOMX 1 29 Sep 18:59:37 19:04:45 43° 261° (W) 19:09:41 467.674
NOAA 15 29 Sep 19:03:18 19:08:11 38° 261° (W) 19:13:08 137.62
DOVE 4 29 Sep 19:11:08 19:16:11 74° 259° (WSW) 19:20:57 437.250
AO-85 29 Sep 19:13:38 19:14:51 11° 107° (ESE) 19:16:04 145.980
BRITE-PL 29 Sep 19:23:22 19:25:51 13° 269° (W) 19:28:21 437.365/2234.400
CUTE-I 29 Sep 19:26:37 19:31:08 28° 263° (W) 19:35:41 437.470
Cubesat XI-IV 29 Sep 19:27:07 19:31:38 28° 263° (W) 19:36:11 437.490
CUBESAT XI-V 29 Sep 19:29:00 19:31:17 14° 295° (WNW) 19:33:33 437.345
HO-68 29 Sep 19:36:05 19:43:00 54° 69° (ENE) 19:49:56 435.675
STRAND 1 29 Sep 19:39:49 19:44:26 33° 98° (E) 19:49:02 437.568
SEEDS 29 Sep 19:49:36 19:53:20 32° 72° (ENE) 19:57:06 437.485
CUTE 1.7 + AOD 2 29 Sep 19:51:30 19:55:35 51° 75° (ENE) 19:59:43 437.475
CANX-2 29 Sep 19:53:04 19:57:14 63° 77° (ENE) 20:01:27 2200.000
GONETS M04 29 Sep 20:01:40 20:10:30 74° 83° (E) 20:19:12
RS-15 29 Sep 20:05:51 20:17:23 90° 115° (ESE) 20:29:36 29.354- 29.394
AAUSAT CUBESAT 2 29 Sep 20:06:36 20:10:04 26° 71° (ENE) 20:13:33 437.432
JUGNU 29 Sep 20:08:44 20:12:15 16° 173° (S) 20:15:45 437.505
CINEMA 3 29 Sep 20:09:04 20:13:32 66° 259° (W) 20:17:50 145.822/145.860
Cosmos 2499 29 Sep 20:20:54 20:28:38 86° 84° (E) 20:37:00 435.465 / 435.565
ISS 29 Sep 20:23:36 20:26:24 26° 325° (NW) 20:29:13 145.825
CUSAT 1 29 Sep 20:27:04 20:32:25 27° 292° (WNW) 20:38:39 437.405
DANDE 29 Sep 20:34:44 20:39:40 51° 284° (WNW) 20:46:14 436.750
AO-85 29 Sep 20:49:29 20:54:46 81° 299° (WNW) 20:59:45 145.980
COMPASS 1 29 Sep 20:52:12 20:56:20 63° 260° (W) 21:00:30 437.405
FUNcube-1 29 Sep 20:58:25 21:02:13 37° 73° (ENE) 21:06:03 145.935
CUBEBUG 2 29 Sep 21:03:01 21:07:11 62° 260° (W) 21:11:18 437.445
DELFI C3 29 Sep 21:09:37 21:12:30 19° 70° (ENE) 21:15:23 145.870
SRMSAT 29 Sep 21:11:17 21:12:38 11° 165° (SSE) 21:13:58 437.500
UWE-3 29 Sep 21:16:43 21:20:51 68° 259° (W) 21:24:59 435.000/436.395/437.385
STRAND 1 29 Sep 21:19:14 21:23:25 26° 292° (WNW) 21:27:36 437.568
HO-68 29 Sep 21:25:19 21:30:57 25° 265° (W) 21:36:37 435.675
SEEDS 29 Sep 21:26:20 21:29:04 17° 266° (W) 21:31:50 437.485
CUTE 1.7 + AOD 2 29 Sep 21:30:45 21:31:41 11° 269° (W) 21:32:36 437.475
PRISM 29 Sep 21:32:19 21:36:16 43° 99° (E) 21:40:09 437.425
Oscar 11 29 Sep 21:35:04 21:39:22 71° 260° (W) 21:43:40 145.826/435.025
